Find Starlink 11446

NORAD ID: 62416 Int'l Des: 2024-249 Owner: SPXS Country: US Constellation: starlink operational
LEOCIRCULAR

Live-Position

3D-Globus wird geladen...

Über Starlink 11446

Beschreibung wird geladen...

Nächste Überflüge

Passes for default location (London). Set your location on the main map for personalized predictions.

Höhenverlauf

Loading altitude history...

Zweizeiliger Elementsatz

1 62416U 24249H 26124.56766221 .00152758 00000-0 11715-2 0 9995
2 62416 42.9970 190.4033 0000094 198.3349 161.7515 15.70854543 78274
Epoch: 4. Mai 2026 • Age: 8 hours

Aktueller Status

Höhe 355.4 km
Geschwindigkeit 7.70 km/s
Subsatellitenpunkt 18.37°N, 25.89°E
Startdatum 23. Dez. 2024
Alter 1.3 years
Typ internet

Technische Details

Klassifizierung Payload
Masse 960.00 kg
Trockenmasse 910.00 kg
Gesamtmasse 960.00 kg
Länge 0.30 m
Durchmesser 4.10 m
Spannweite 29.00 m
Form Box + pan
Hersteller SPXS
Bus-Typ Starlink V2MD
Phasenstatus In Orbit
Besitzer/Staat SPXS/US

Most Searched